Location: Bluff Heights
(33.7692°N, 118.1592°W)
Time: 17:44:32
(UTC+00:00)

Vanguard 2 - Visible Passes

Search period start: 27 July 2021 00:00
Search period end: 06 August 2021 00:00
Orbit: 552 x 2937 km, 32.9° (Epoch: 27 July)

Date Brightness Start Highest point End Pass type
(mag) Time Alt. Az. Time Alt. Az. Time Alt. Az.
28 Jul 9.3 11:17:21 10° SSE 11:18:22 11° SE 11:19:29 10° SE visible
29 Jul 8.8 11:34:11 15° S 11:35:45 18° SSE 11:38:55 10° ESE visible
30 Jul 8.4 11:50:59 17° SSW 11:53:13 28° SSE 11:57:17 10° E visible
31 Jul 7.8 12:07:47 15° SW 12:10:44 40° SSE 12:15:22 10° E visible
01 Aug 7.4 12:24:35 11° WSW 12:28:21 55° SSE 12:33:18 10° E visible
02 Aug 9.1 10:39:58 16° ESE 10:39:58 16° ESE 10:41:22 10° ESE visible
03 Aug 8.2 10:56:45 28° SE 10:56:45 28° SE 10:59:31 10° E visible
04 Aug 7.3 11:13:30 44° SSE 11:13:31 44° SSE 11:17:26 10° E visible
05 Aug 6.9 11:30:15 45° SW 11:31:10 60° SSE 11:35:17 10° E visible
